Location: Fours
(44.3167°N, 6.7000°E)
Time: 21:37:30
(UTC+00:00)

Cosmos 494 Rocket - Pass Details

Date: 16 October 2021
Orbit: 743 x 770 km, 74.1° (Epoch: 29 November)

Event Time Altitude Azimuth Distance (km) Brightness Sun altitude
Rises 17:46:06 0° 339° (NNW) 3,240 7.5 -11.3°
Reaches altitude 10° 17:48:29 10° 339° (NNW) 2,306 6.7 -11.7°
Maximum altitude 17:53:44 88° 66° (ENE) 765 4.0 -12.6°
Drops below altitude 10° 17:58:54 10° 160° (SSE) 2,272 6.2 -13.6°
Sets 18:01:14 0° 161° (SSE) 3,188 7.0 -14.0°
